Paris/de Gaulle Arpt, France

10:46 AM CET on December 10, 2016 (GMT +0100)
Charles de Gaulle

Weather History for LFPG - February, 2014

Change the Weather History Date:

Friday, February 7, 2014

  Actual Average Record
Temperature  
Mean Temperature 48 °F -  
Max Temperature 51 °F 47 °F 59 °F (2011)
Min Temperature 44 °F 35 °F 14 °F (2012)
Degree Days  
Heating Degree Days 18    
Moisture  
Dew Point 37 °F    
Average Humidity 58    
Maximum Humidity 76    
Minimum Humidity 39    
Precipitation  
Precipitation 0.01 in - - ()
Sea Level Pressure  
Sea Level Pressure 29.42 in    
Wind  
Wind Speed 22 mph ()    
Max Wind Speed 38 mph    
Max Gust Speed 54 mph    
Visibility 10.3 miles    
Events Rain    
Averages and records for this station are not official NWS values.
T = Trace of Precipitation, MM = Missing Value Source: Averaged Metar Reports

Daily Weather History Graph

Daily Weather History Graph

Search for Another Location

Airport or City:

Trip Planner

Search our weather history database for the weather conditions in past years. The results will help you decide how hot, cold, wet, or windy it might be!

Date:

Astronomy

Feb. 07, 2014 Rise Set
Actual Time 8:11 AM CET 5:56 PM CET
Civil Twilight 7:38 AM CET 6:30 PM CET
Nautical Twilight 7:00 AM CET 7:07 PM CET
Astronomical Twilight 6:24 AM CET 7:44 PM CET
Moon 11:53 AM CET (2/7) 2:16 AM CET (2/7)
Length of Visible Light 10h 51m
Length of Day
9h 44m
First Quarter, 56% of the Moon is Illuminated
Feb 7
First Quarter
Feb 15
Full
Feb 22
Last Quarter
Mar 1
New
Mar 8
First Quarter

Hourly Weather History & Observations

Time (CET) Temp. Windchill Dew Point Humidity Pressure Visibility Wind Dir Wind Speed Gust Speed Precip Events Conditions
12:00 AM 56 °F - 40 °F 43% 29.22 in 19 mi South 17.3 mph - -   Mostly Cloudy
12:00 AM 55.4 °F - 41.0 °F 58% 29.21 in - South 17.3 mph - N/A   Clear
12:30 AM 57.2 °F - 39.2 °F 51% 29.21 in - South 19.6 mph 32.2 mph N/A   Clear
1:00 AM 56 °F - 41 °F 46% 29.20 in 19 mi South 18.4 mph - -   Mostly Cloudy
1:00 AM 57.2 °F - 41.0 °F 55% 29.18 in - South 19.6 mph - N/A   Clear
1:30 AM 55.4 °F - 42.8 °F 63% 29.18 in 6.2 mi South 21.9 mph - N/A   Scattered Clouds
2:00 AM 55 °F - 43 °F 53% 29.18 in 19 mi South 20.7 mph - -   Mostly Cloudy
2:00 AM 55.4 °F - 42.8 °F 63% 29.18 in 6.2 mi South 20.7 mph - N/A   Mostly Cloudy
2:30 AM 55.4 °F - 42.8 °F 63% 29.18 in 6.2 mi South 20.7 mph - N/A   Mostly Cloudy
3:00 AM 55 °F - 42 °F 51% 29.17 in 19 mi SSW 27.6 mph - -   Mostly Cloudy
3:00 AM 55.4 °F - 42.8 °F 63% 29.15 in 6.2 mi SSW 28.8 mph - N/A   Mostly Cloudy
3:30 AM 55.4 °F - 42.8 °F 63% 29.15 in 6.2 mi SSW 27.6 mph 42.6 mph N/A   Mostly Cloudy
4:00 AM 55 °F - 42 °F 51% 29.13 in 19 mi South 27.6 mph - -   Mostly Cloudy
4:00 AM 55.4 °F - 41.0 °F 58% 29.12 in 6.2 mi South 27.6 mph 44.9 mph N/A   Mostly Cloudy
4:30 AM 55.4 °F - 42.8 °F 63% 29.12 in 6.2 mi South 32.2 mph 48.3 mph N/A   Mostly Cloudy
5:00 AM 55 °F - 42 °F 52% 29.12 in 16 mi SSW 35.7 mph - -   Mostly Cloudy
5:00 AM 55.4 °F - 42.8 °F 63% 29.12 in 6.2 mi SSW 36.8 mph 52.9 mph N/A   Mostly Cloudy
5:30 AM 53.6 °F - 44.6 °F 72% 29.12 in 5.6 mi SSW 33.4 mph 50.6 mph N/A Rain Light Rain
6:00 AM 52 °F - 44 °F 66% 29.14 in 9 mi SSW 38.0 mph - - Rain Light Rain
6:00 AM 51.8 °F - 44.6 °F 76% 29.12 in 6.2 mi SSW 35.7 mph 51.8 mph N/A Rain Light Rain
6:30 AM 51.8 °F - 42.8 °F 71% 29.15 in 6.2 mi SW 28.8 mph - N/A   Mostly Cloudy
7:00 AM 50.0 °F - 42.8 °F 76% 29.18 in 6.2 mi SW 33.4 mph 47.2 mph N/A   Mostly Cloudy
7:30 AM 50.0 °F - 39.2 °F 66% 29.24 in 6.2 mi WSW 35.7 mph 54.1 mph N/A   Mostly Cloudy
8:00 AM 48 °F - 38 °F 58% 29.28 in 19 mi WSW 32.2 mph - -   Overcast
8:00 AM 48.2 °F - 37.4 °F 66% 29.27 in 6.2 mi WSW 32.2 mph 47.2 mph N/A   Mostly Cloudy
8:30 AM 48.2 °F - 37.4 °F 66% 29.30 in 6.2 mi WSW 34.5 mph 47.2 mph N/A Rain Light Rain
9:00 AM 47 °F - 37 °F 60% 29.37 in 19 mi WSW 28.8 mph - - Rain Light Rain
9:00 AM 48.2 °F - 37.4 °F 66% 29.33 in 6.2 mi WSW 27.6 mph 43.7 mph N/A   Mostly Cloudy
9:30 AM 46.4 °F 37.4 °F 37.4 °F 71% 29.39 in 6.2 mi WSW 28.8 mph 42.6 mph N/A Rain Light Rain
10:00 AM 47 °F - 37 °F 59% 29.43 in 19 mi WSW 31.1 mph - - Rain Light Rain
10:00 AM 46.4 °F 37.0 °F 37.4 °F 71% 29.42 in 6.2 mi WSW 31.1 mph - N/A   Mostly Cloudy
10:30 AM 46.4 °F 37.5 °F 37.4 °F 71% 29.44 in 6.2 mi WSW 27.6 mph - N/A   Mostly Cloudy
11:00 AM 47 °F - 36 °F 56% 29.49 in 19 mi WSW 26.5 mph - -   Mostly Cloudy
11:00 AM 48.2 °F - 35.6 °F 62% 29.47 in 6.2 mi WSW 25.3 mph - N/A   Scattered Clouds
11:30 AM 48.2 °F - 35.6 °F 62% 29.50 in 6.2 mi WSW 26.5 mph - N/A   Mostly Cloudy
12:00 PM 50 °F - 35 °F 46%  in 19 mi West 21.9 mph - -   Mostly Cloudy
12:00 PM 50.0 °F - 35.6 °F 58% 29.50 in 6.2 mi West 21.9 mph 34.5 mph N/A   Mostly Cloudy
12:30 PM 50.0 °F - 35.6 °F 58% 29.53 in 6.2 mi WSW 26.5 mph 39.1 mph N/A   Mostly Cloudy
1:00 PM 48 °F - 35 °F 50% 29.57 in 19 mi West 25.3 mph - -   Partly Cloudy
1:00 PM 48.2 °F - 35.6 °F 62% 29.56 in 6.2 mi West 26.5 mph - N/A   Scattered Clouds
1:30 PM 48.2 °F - 35.6 °F 62% 29.56 in 6.2 mi West 24.2 mph 35.7 mph N/A   Scattered Clouds
2:00 PM 49 °F - 35 °F 47% 29.60 in 19 mi WSW 23.0 mph - -   Mostly Cloudy
2:00 PM 50.0 °F - 35.6 °F 58% 29.59 in 6.2 mi WSW 24.2 mph - N/A   Scattered Clouds
2:30 PM 50.0 °F - 35.6 °F 58% 29.59 in 6.2 mi WSW 24.2 mph - N/A   Mostly Cloudy
3:00 PM 50 °F - 35 °F 44% 29.62 in 6 mi WSW 19.6 mph - -   Mostly Cloudy
3:00 PM 50.0 °F - 35.6 °F 58% 29.59 in 6.2 mi WSW 19.6 mph - N/A   Scattered Clouds
3:30 PM 51.8 °F - 33.8 °F 50% 29.62 in 6.2 mi WSW 23.0 mph - N/A   Scattered Clouds
4:00 PM 50 °F - 33 °F 40% 29.65 in 16 mi WSW 20.7 mph - -   Mostly Cloudy
4:00 PM 50.0 °F - 33.8 °F 54% 29.62 in 6.2 mi WSW 21.9 mph - N/A   Scattered Clouds
4:30 PM 50.0 °F - 32.0 °F 50% 29.62 in 6.2 mi WSW 18.4 mph - N/A   Scattered Clouds
5:00 PM 51.8 °F - 32.0 °F 47% 29.65 in 6.2 mi WSW 17.3 mph - N/A   Scattered Clouds
5:30 PM 50.0 °F - 32.0 °F 50% 29.65 in 6.2 mi WSW 17.3 mph - N/A   Scattered Clouds
6:00 PM 48 °F - 31 °F 39% 29.66 in 19 mi SW 16.1 mph - -   Scattered Clouds
6:00 PM 48.2 °F - 30.2 °F 50% 29.65 in 6.2 mi SW 16.1 mph - N/A   Partly Cloudy
6:30 PM 48.2 °F - 32.0 °F 54% 29.65 in - SSW 12.7 mph - N/A   Clear
7:00 PM 47 °F - 32 °F 43% 29.67 in 19 mi SSW 12.7 mph - -   Scattered Clouds
7:00 PM 48.2 °F - 32.0 °F 54% 29.65 in - SSW 12.7 mph - N/A   Clear
7:30 PM 46.4 °F 41.5 °F 32.0 °F 57% 29.65 in - South 10.4 mph - N/A   Clear
8:00 PM 45 °F - 33 °F 51% 29.65 in 19 mi South 11.5 mph - -   Clear
8:00 PM 44.6 °F 38.8 °F 32.0 °F 61% 29.62 in - South 11.5 mph - N/A   Clear
8:30 PM 44.6 °F 38.8 °F 33.8 °F 66% 29.62 in - South 11.5 mph - N/A   Clear
9:00 PM 45 °F - 34 °F 55% 29.64 in 19 mi South 10.4 mph - -   Partly Cloudy
9:00 PM 44.6 °F 39.2 °F 33.8 °F 66% 29.62 in 6.2 mi South 10.4 mph - N/A   Mostly Cloudy
9:30 PM 46.4 °F 40.7 °F 33.8 °F 62% 29.59 in 6.2 mi South 12.7 mph - N/A   Mostly Cloudy
10:00 PM 46 °F - 35 °F 54% 29.61 in 19 mi South 16.1 mph - -   Mostly Cloudy
10:00 PM 46.4 °F 39.8 °F 33.8 °F 62% 29.59 in - South 16.1 mph - N/A   Clear
10:30 PM 46.4 °F 39.2 °F 35.6 °F 66% 29.56 in 6.2 mi South 18.4 mph - N/A   Scattered Clouds
11:00 PM 46 °F - 37 °F 62% 29.59 in 19 mi SSW 20.7 mph - -   Mostly Cloudy
11:00 PM 46.4 °F 38.7 °F 37.4 °F 71% 29.56 in 6.2 mi SSW 20.7 mph - N/A   Mostly Cloudy
11:30 PM 46.4 °F 39.2 °F 37.4 °F 71% 29.56 in 6.2 mi South 18.4 mph - N/A   Scattered Clouds